"Pseudo-MPEC" for C3ZR9A2

Created 2020 Nov 22 15:07:22 UT using Find_Orb

Click here for an explanation of pseudo-MPECs

 
 Astrometry: 
     C3ZR9A2  C2020 11 21.19352102 40 55.63 +42 09 09.0    ~BL5b 21.50GVNEOCPG96
     C3ZR9A2  C2020 11 21.20369802 40 56.13 +42 10 14.6    ~BL5b 20.90GVNEOCPG96
     C3ZR9A2  C2020 11 21.20878202 40 56.40 +42 10 48.4    ~BL5b 21.13GVNEOCPG96
     C3ZR9A2 KC2020 11 21.23329702 40 57.63 +42 13 25.5    ~BL67 21.19GVNEOCPV06
     C3ZR9A2 KC2020 11 21.23489202 40 57.69 +42 13 35.4    ~BL67 21.68GVNEOCPV06
     C3ZR9A2 KC2020 11 21.23648202 40 57.79 +42 13 46.2    ~BL67       VNEOCPV06
     C3ZR9A2 KC2020 11 21.30269802 41 01.11 +42 20 44.0    ~BL7b 20.58GVNEOCPV06
     C3ZR9A2 KC2020 11 21.30588502 41 01.30 +42 21 03.7    ~BL7b 21.12GVNEOCPV06
     C3ZR9A2 KC2020 11 21.30913302 41 01.47 +42 21 24.3    ~BL7b 21.14GVNEOCPV06
     C3ZR9A2 bC2020 11 21y-U0po3+!h,!%NH?SbBi@yXqj-gp+Fo8!%/p8nKAstrometryZ'`L01
     C3ZR9A2 bC2020 11 21NOY[8redacted;Uw'vP_m@F4jRZ_D6S`1G2E!9_Oh?0Zta;Jl!f!L01
     C3ZR9A2 bC2020 11 21RW-gpR#5_caOEbh+l1$Vkxr-IdbAP=MaK:XWqmclick5GWdl@-QfL01
     C3ZR9A2 bC2020 11 21UBcT:JW$fR/*%p/@N@ku6Bnkihx@Tpvv3*k^;o$mXbr)Kl1k^-\dL01
     C3ZR9A2 bC2020 11 21)P/rr-mLWikMm)h=a[OJ-XOju8QWV4afaYMT__waPhereJ/3lN'UL01
     C3ZR9A2 bC2020 11 21x4h(h2#ZcZ7wA#8T*forl9iCTsmc`9C5@Sg/explanationAoQSrL01
     C3ZR9A2 KC2020 11 222pRIGM`'0R@TvOMCl476#1ij@0`L=2^3?aZlg@tQMn_#C3F6!7$I204
     C3ZR9A2 HC2020 11 22oniY.ovASc`:C,[dZgkOLnL9n:,BU7gxJunFp!/0-=QKwrE0S8$o204
     C3ZR9A2 KC2020 11 22.15184302 43 33.32 +44 04 22.2    ~BM47 20.99GVNEOCPI52
     C3ZR9A2 KC2020 11 22.15520802 43 33.73 +44 04 50.9    ~BM47       VNEOCPI52
     C3ZR9A2 KC2020 11 22.15857102 43 34.11 +44 05 21.6    ~BM47 21.09GVNEOCPI52

Station data:
(204) Schiaparelli Observatory  (N45.867933 E8.770800)  Italy.  Observer L.
   Buzzi. 0.60-m f/4.64 Newtonian + CCD.
(G96) Mt. Lemmon Survey  (N32.442754 W110.788720)  US/Arizona.  Observers T.
   A. Pruyne, B. M. Africano, E. J. Christensen, G. A. Farneth, D. C. Fuls,
   A. R. Gibbs, A. D. Grauer, H. Gröller, J. A. Johnson, R. A. Kowalski, S.
   M. Larson, G. J. Leonard, D. Rankin, R. L. Seaman, F. C. Shelly. 1.5-m
   reflector + 10K CCD.
(I52) Steward Observatory, Mt. Lemmon Station  (N32.442547 W110.788920)
   US/Arizona.  Observers T. A. Pruyne, B. M. Africano, E. J. Christensen, G.
   A. Farneth, D. C. Fuls, A. R. Gibbs, A. D. Grauer, H. Gröller, J. A.
   Johnson, R. A. Kowalski, S. M. Larson, G. J. Leonard, D. Rankin, R. L.
   Seaman, F. C. Shelly. 1.0-m reflector + CCD.
(L01) Višnjan Observatory, Tičan  (N45.290900 E13.749300)  Croatia.
   Observers K. Korlević, E. Pettarin. Measurer E. Pettarin. 1.0-m f/2.9
   reflector + CCD.
(V06) Catalina Sky Survey-Kuiper  (N32.416847 W110.732550)  US/Arizona.
   Observers T. A. Pruyne, B. M. Africano, E. J. Christensen, G. A. Farneth,
   D. C. Fuls, A. R. Gibbs, A. D. Grauer, H. Gröller, J. A. Johnson, R. A.
   Kowalski, S. M. Larson, G. J. Leonard, D. Rankin, R. L. Seaman, F. C.
   Shelly. 1.55-m reflector + CCD.

Orbital elements:  C3ZR9A2
   Perihelion 2021 Jan 3.196682 +/- 0.0202 TT =  4:43:13 (JD 2459217.696682)
Epoch 2020 Nov 22.0 TT = JDT 2459175.5   Earth MOID: 0.0082   Ma: 0.0750
M 345.12135155 +/- 0.07             (J2000 ecliptic)          AutoNEOCP
n   0.35260232 +/- 0.00161          Peri.  226.52168 +/- 0.044
a   1.98432405 +/- 0.00602          Node   251.30414 +/- 0.027
e   0.5718227 +/- 0.00146           Incl.    5.37418 +/- 0.016
P   2.80                   H 27.0   G  0.15   U  8.4  
q 0.84964245 +/- 0.000329    Q 3.11900565 +/- 0.0124
From 20 observations 2020 Nov. 21-22 (23.2 hr); mean residual 0".33
Residuals in arcseconds: 
201121 G96  .29+  .22-    201121 V06  .10-  .23-    201121 L01  .38-  .48-    
201121 G96  .11-  .45-    201121 V06  .22-  .12+    201122 204  .29+  .13+    
201121 G96  .03-  .55+    201121 L01  .41+  .53-    201122 204  .03-  .16+    
201121 V06  .12+  .10+    201121 L01  .51-  .70+    201122 I52  .28-  .19+    
201121 V06  .09-  .20-    201121 L01  .61+  .31+    201122 I52  .03+  .70-    
201121 V06  .16+  .44+    201121 L01  .04-  .42-    201122 I52  .06+  .43+    
201121 V06  .26-  .03-    201121 L01  .10-  .02+    

Ephemerides (geocentric):
Date (UTC) HH   RA              Dec         delta   r     elong  mag " sig PA
---- -- -- --  -------------   -----------  ------ ------ -----  --- ---- ---
2020 11 22 15  02 45 06.145   +45 15 19.31  .03960 1.0225 151.3 21.2 .361  18
2020 11 22 16  02 45 16.264   +45 22 10.31  .03930 1.0222 151.2 21.2 .407  18
2020 11 22 17  02 45 26.586   +45 29 07.43  .03900 1.0219 151.1 21.2 .457  17
2020 11 22 18  02 45 37.119   +45 36 10.80  .03870 1.0216 151.0 21.2 .510  17
2020 11 22 19  02 45 47.869   +45 43 20.55  .03841 1.0213 151.0 21.2 .567  17
2020 11 22 20  02 45 58.842   +45 50 36.83  .03811 1.0210 150.9 21.1 .627  17
2020 11 22 21  02 46 10.044   +45 57 59.78  .03781 1.0207 150.8 21.1 .691  17
2020 11 22 22  02 46 21.482   +46 05 29.56  .03752 1.0204 150.7 21.1 .760  16
2020 11 22 23  02 46 33.165   +46 13 06.32  .03722 1.0201 150.6 21.1 .832  16
2020 11 23 00  02 46 45.098   +46 20 50.22  .03693 1.0198 150.5 21.1 .909  16
2020 11 23 01  02 46 57.290   +46 28 41.44  .03663 1.0195 150.4 21.1 0.99  16
2020 11 23 02  02 47 09.750   +46 36 40.13  .03634 1.0192 150.3 21.1 1.08  16
2020 11 23 03  02 47 22.485   +46 44 46.47  .03604 1.0189 150.2 21.0 1.17  16
2020 11 23 04  02 47 35.504   +46 53 00.65  .03575 1.0186 150.1 21.0 1.26  16
2020 11 23 05  02 47 48.817   +47 01 22.84  .03545 1.0183 150.0 21.0 1.37  16
2020 11 23 06  02 48 02.433   +47 09 53.25  .03516 1.0180 149.9 21.0 1.47  16
2020 11 23 07  02 48 16.362   +47 18 32.07  .03486 1.0177 149.8 21.0 1.59  16
2020 11 23 08  02 48 30.615   +47 27 19.49  .03457 1.0174 149.7 21.0 1.70  16
2020 11 23 09  02 48 45.202   +47 36 15.74  .03427 1.0171 149.5 21.0 1.83  16
2020 11 23 10  02 49 00.136   +47 45 21.03  .03398 1.0168 149.4 20.9 1.96  16
2020 11 23 11  02 49 15.428   +47 54 35.58  .03369 1.0165 149.3 20.9 2.10  16
2020 11 23 12  02 49 31.090   +48 03 59.62  .03339 1.0162 149.2 20.9 2.25  16
2020 11 23 13  02 49 47.136   +48 13 33.39  .03310 1.0159 149.1 20.9 2.40  16
2020 11 23 14  02 50 03.580   +48 23 17.13  .03281 1.0156 149.0 20.9 2.56  16
2020 11 23 15  02 50 20.436   +48 33 11.09  .03252 1.0153 148.8 20.9 2.73  16
2020 11 23 16  02 50 37.719   +48 43 15.55  .03223 1.0150 148.7 20.8 2.91  16
2020 11 23 17  02 50 55.445   +48 53 30.76  .03194 1.0147 148.6 20.8 3.09  16
2020 11 23 18  02 51 13.632   +49 03 57.00  .03164 1.0144 148.5 20.8 3.29  16
2020 11 23 19  02 51 32.295   +49 14 34.56  .03135 1.0141 148.3 20.8 3.49  16
2020 11 23 20  02 51 51.455   +49 25 23.74  .03106 1.0138 148.2 20.8 3.71  16
2020 11 23 21  02 52 11.130   +49 36 24.84  .03077 1.0135 148.0 20.8 3.94  16
2020 11 23 22  02 52 31.341   +49 47 38.18  .03048 1.0132 147.9 20.7 4.17  16
2020 11 23 23  02 52 52.109   +49 59 04.08  .03019 1.0130 147.8 20.7 4.42  16
2020 11 24 00  02 53 13.457   +50 10 42.89  .02991 1.0127 147.6 20.7 4.68  16
2020 11 24 01  02 53 35.410   +50 22 34.95  .02962 1.0124 147.5 20.7 4.95  16
2020 11 24 02  02 53 57.992   +50 34 40.61  .02933 1.0121 147.3 20.7 5.24  16
2020 11 24 03  02 54 21.231   +50 47 00.27  .02904 1.0118 147.2 20.7 5.54  16
2020 11 24 04  02 54 45.154   +50 59 34.28  .02875 1.0115 147.0 20.6 5.85  17
2020 11 24 05  02 55 09.792   +51 12 23.07  .02847 1.0112 146.8 20.6 6.18  17
2020 11 24 06  02 55 35.176   +51 25 27.03  .02818 1.0109 146.7 20.6 6.53  17
2020 11 24 07  02 56 01.340   +51 38 46.59  .02790 1.0106 146.5 20.6 6.89  17
2020 11 24 08  02 56 28.320   +51 52 22.20  .02761 1.0103 146.3 20.6 7.26  17
2020 11 24 09  02 56 56.154   +52 06 14.30  .02733 1.0100 146.2 20.5 7.66  17
2020 11 24 10  02 57 24.881   +52 20 23.36  .02704 1.0097 146.0 20.5 8.08  17
2020 11 24 11  02 57 54.546   +52 34 49.88  .02676 1.0094 145.8 20.5 8.51  17
2020 11 24 12  02 58 25.192   +52 49 34.35  .02647 1.0091 145.6 20.5 8.96  17
2020 11 24 13  02 58 56.870   +53 04 37.30  .02619 1.0088 145.4 20.5 9.44  17
2020 11 24 14  02 59 29.631   +53 19 59.26  .02591 1.0086 145.2 20.5 9.94  17